Dean International
Flight School

Career Spotlight

Mika

Mika

Congratulations to Mika from Khazakstan. She recently sent us this photo of her flying an Airbus airliner.

More...
Mika's Success Story
close

Congratulations to Mika from Khazakstan. She recently sent us this photo of her flying an Airbus airliner.

Mario

Mario

My dreams could not have been realized if I wouldn't have been part of the Dean International family.

More...
Mario's Success Story
close

"My dreams could not have been realized if I wouldn't have been part of the Dean International family. Thank you Robert, thanks to all my co-workers, and thanks to all of my students!"

Fernando

Fernando

I am now working as a First Officer at TACA and am enjoying every moment of it.

More...
Fernando's Success Story
close

"Will never forget my time of flight training at Dean International. I am now working as a First Officer at TACA and am enjoying every moment of it."

Alvaro

Alvaro

Because of the flight time I was able to built while instructing, I got the experience needed to apply to an airline in Colombia.

More...
Alvaro's Success Story
close

Dean alumnus Alvaro Londoño currently flies with Tampa Cargo. He says of his experience at Dean: "I want to take this opportunity to thank you for giving me the chance to build my experience and expand my knowledge in Dean International. Because of the flight time I was able to built flight instructing, I got the experience needed to apply to an airline in Colombia."

Ralph

Ralph

Every Aruban student of Dean International has made it into Tiara Air Aruba, that is very nice.

More...
Ralph's Success Story
close

"Next to me is my Co-Pilot, Elison. This picture was taken on our first flight together, which was almost exactly 5 years after I finished at Dean International. [...] Every Aruban student of Dean International has made it into Tiara Air Aruba. [...] The future looks bright here in Aruba."

Rohaan

Rohaan

The [..] staff will all work diligently to help you finish your certificates as safely and efficiently as possible.

More...
Rohaan's Success Story
close

After receiving very hard times from other flight schools [...], I came to Dean International where Robert Dean personally sat down with me and gave me a financial and chronological look into how much remained to finish my private pilot certificate. Through his hard efforts as an instructor and mentor, I was able to finish my private pilot certificate within one week.

Welcome to Dean International

In over two decades, Dean International has educated over 7,000 pilots from all over the world, including over 1,000 students from India alone. By offering a great training experience, a friendly service staff, an ample variety of aircraft, and by improving constantly, we have become one of the largest, most prestigious FAA 141-approved flight schools in North America. Located in Miami, Florida, USA, our flight school offers an ideal location for year-round, "learn to fly" weather, flight training. Dean International is not only well-equipped to provide services to professional trainees but also caters to General Aviation renters. Visit or contact our headquarters at Kendall-Tamiami Executive Airport located in Miami, FL today to learn more about us, or simply read more about our programs if you are an international student interested in joining our school.

Local Airport Information
TAF FOR KTMB (Issued: Wed, September 2nd 2015 12:30 PM UTC)
TAF KTMB 021128Z 0212/0312 VRB03KT P6SM VCSH FEW021
      FM021400 13007KT P6SM SCT030
      FM030300 13004KT P6SM FEW030
     
METAR FOR KTMB (Issued: Wed, September 2nd 2015 11:53 AM UTC):
KTMB 021153Z 00000KT 10SM CLR 26/25 A3008 RMK AO2 SLP184 70006 T02560250 10278 20250 53016

This weather information is provided by the National Weather Service.
It is automatically refreshed every three minutes.
TAF FOR KHST (Issued: Wed, September 2nd 2015 8:06 AM UTC)
TAF TAF KHST 0208/0314 09009KT 9999 SCT030 QNH3001INS
      TEMPO 0218/0222 VRB12G20KT 6000 -TSRA BKN020CB
      BECMG 0221/0222 11006KT 9999 SCT020 QNH3000INS
      BECMG 0300/0301 VRB06KT 9999 SCT020 QNH3005INS TX33/0220Z TN26/0208Z
     
METAR FOR KHST (Issued: Wed, September 2nd 2015 11:58 AM UTC):
KHST 021158Z AUTO 30002KT 10SM FEW022 27/25 A3007 RMK AO2 SLP186 T02690248 10283 20263 52017

This weather information is provided by the National Weather Service.
It is automatically refreshed every three minutes.
TAF FOR KOPF (Issued: Wed, September 2nd 2015 12:30 PM UTC)
TAF KOPF 021128Z 0212/0312 VRB03KT P6SM VCSH SCT020 SCT030
      FM021400 13009KT P6SM SCT030
      FM030300 13004KT P6SM FEW030
     
METAR FOR KOPF (Issued: Wed, September 2nd 2015 12:32 PM UTC):
KOPF 021232Z 00000KT 10SM SCT023 BKN034 OVC046 28/26 A3008 RMK AO2 RAB20E30 P0000 T02830261

This weather information is provided by the National Weather Service.
It is automatically refreshed every three minutes.
TAF FOR KMIA (Issued: Wed, September 2nd 2015 12:33 PM UTC)
TAF KMIA 021128Z 0212/0312 VRB03KT P6SM VCSH SCT020 BKN060
      FM021400 12007KT P6SM SCT030
      FM030300 13004KT P6SM FEW030
     
METAR FOR KMIA (Issued: Wed, September 2nd 2015 11:53 AM UTC):
KMIA 021153Z 00000KT 10SM -RA SCT020TCU BKN040 BKN250 28/26 A3007 RMK AO2 RAB08 SLP183 TCU N-E AND W P0002 60002 70002 T02830261 10289 20278 53015

This weather information is provided by the National Weather Service.
It is automatically refreshed every three minutes.
Design by Ariel Llizo
© Dean International Inc. 2012